TimeEDT,TemperatureF,Dew PointF,Humidity,Sea Level PressureIn,VisibilityMPH,Wind Direction,Wind SpeedMPH,Gust SpeedMPH,PrecipitationIn,Events,Conditions,WindDirDegrees,DateUTC
12:55 AM,52.2,33.1,48,30.47,10.0,ENE,6.9,-,N/A,,Mostly Cloudy,70,2013-05-03 04:55:00
1:55 AM,51.3,33.8,51,30.46,10.0,East,3.5,-,N/A,,Mostly Cloudy,80,2013-05-03 05:55:00
2:55 AM,49.8,34.5,56,30.47,10.0,East,5.8,-,N/A,,Mostly Cloudy,90,2013-05-03 06:55:00
3:55 AM,47.3,34.9,62,30.47,10.0,ENE,5.8,-,N/A,,Mostly Cloudy,60,2013-05-03 07:55:00
4:55 AM,43.5,34.5,71,30.48,10.0,NE,5.8,-,N/A,,Clear,50,2013-05-03 08:55:00
5:55 AM,42.8,34.9,74,30.50,10.0,NNE,10.4,-,N/A,,Clear,20,2013-05-03 09:55:00
6:55 AM,46.9,36.1,66,30.51,10.0,NE,10.4,-,N/A,,Clear,40,2013-05-03 10:55:00
7:55 AM,49.8,36.3,60,30.51,10.0,North,15.0,-,N/A,,Clear,10,2013-05-03 11:55:00
8:55 AM,52.0,37.0,57,30.51,10.0,NE,8.1,-,N/A,,Clear,50,2013-05-03 12:55:00
9:55 AM,54.7,37.4,52,30.49,10.0,NE,10.4,-,N/A,,Clear,40,2013-05-03 13:55:00
10:55 AM,57.9,37.0,46,30.48,10.0,NE,8.1,-,N/A,,Clear,40,2013-05-03 14:55:00
11:55 AM,61.0,37.2,41,30.45,10.0,NE,9.2,-,N/A,,Clear,50,2013-05-03 15:55:00
12:55 PM,64.4,39.2,40,30.43,10.0,Variable,5.8,-,N/A,,Clear,0,2013-05-03 16:55:00
1:55 PM,65.8,39.0,37,30.42,10.0,East,4.6,-,N/A,,Clear,100,2013-05-03 17:55:00
2:55 PM,66.4,39.2,37,30.39,10.0,Variable,5.8,-,N/A,,Clear,0,2013-05-03 18:55:00
3:55 PM,67.8,39.9,36,30.37,10.0,ESE,5.8,-,N/A,,Clear,110,2013-05-03 19:55:00
4:55 PM,67.5,41.5,39,30.36,10.0,SE,4.6,-,N/A,,Clear,130,2013-05-03 20:55:00
5:55 PM,66.6,42.1,41,30.36,10.0,Variable,6.9,-,N/A,,Clear,0,2013-05-03 21:55:00
6:55 PM,64.6,42.1,44,30.36,10.0,ESE,8.1,-,N/A,,Clear,110,2013-05-03 22:55:00
7:55 PM,61.2,42.3,50,30.38,10.0,East,4.6,-,N/A,,Clear,100,2013-05-03 23:55:00
8:55 PM,58.8,42.4,55,30.39,10.0,Variable,3.5,-,N/A,,Clear,0,2013-05-04 00:55:00
9:55 PM,56.1,42.3,60,30.40,10.0,Variable,3.5,-,N/A,,Clear,0,2013-05-04 01:55:00
10:55 PM,51.6,41.7,69,30.39,7.0,Calm,Calm,-,N/A,,Clear,0,2013-05-04 02:55:00
11:55 PM,43.3,41.9,95,30.38,10.0,Calm,Calm,-,N/A,,Clear,0,2013-05-04 03:55:00